User: anonymous   Login
Location: *
(51.5000°N, 0.1100°W)
Time: 00:38:45
(UTC+00:00)
Language:

Cosmos 2181 Rocket - Orbit

View from above orbital plane
View from above orbital plane
View from above satellite
View from above satellite

Ground track
Ground track

The orbit data is extracted from the following two-line orbital elements,

1 21903U 92012B   24194.45839059  .00000064  00000-0  50131-4 0  9996
2 21903  82.9358  70.7872 0044083  94.8649  78.2030 13.74658661622043
Epoch (UTC): 12 July 2024 11:00:04
Eccentricity: 0.0044083
inclination: 82.9358°
perigee height: 950 km
apogee height: 1015 km
right ascension of ascending node: 70.7872°
argument of perigee: 94.8649°
revolutions per day: 13.74658661
mean anomaly at epoch: 78.2030°
orbit number at epoch: 62204

The dashed part of the orbit path shows where the satellite is in the earth's shadow,  

DLR